sat.trackr.live / text

‹ back to catalog

STARLINK-31668

NORAD 59580 · 2024-076S

PAYLOAD ACTIVE UNKNOWN

§ Identity

Operator
Country
US
Launch date
2024-04-23
Launch site
AFETR
Launch vehicle
Mass (kg)
RCS (m²)

Purposes: comms

External: N2YO · Heavens-Above · Gunter

§ Orbital elements

Epoch: 2026-09-21T13:24:37.006560Z

Period
94.27 min
Inclination
43.0039°
Eccentricity
0.0001561
Mean motion
15.27579671 rev/d
Perigee alt
482.0 km
Apogee alt
484.1 km
Semi-major
6,861.2 km
B*
2.6899e-5
RAAN
342.3725°
Arg perigee
268.4622°
Mean anomaly
91.6051°
Rev number
13,646

§ Raw data

STARLINK-316681 59580U 24076S   26264.55876165  .00000478  00000+0  26899-4 0  99952 59580  43.0039 342.3725 0001561 268.4622  91.6051 15.27579671136469

JSON: /api/v1/satellites/59580 · /tle

For live sub-satellite position, see the globe view (requires WebGL).

§ Visibility from observer

Set your observer location to see the next 7 days of passes ≥ 10°. The values pass through the URL so the page stays shareable.

No JS? Fill the form by hand. The geolocation button needs JavaScript.